| time (UTC) | temp F | wind direction | speed MPH | gust MPH | rain 1hr in | rain 24hr in | rain mn in | humidity % | barometer mb |
| 20260504225312 | 80 | 130 | 4.0 | 5.0 | 0.00 | 0.00 | 0.00 | 67 | 1008.9 |
| 20260504224809 | 79 | 136 | 5.0 | 8.0 | 0.00 | 0.00 | 0.00 | 66 | 1008.8 |
| 20260504224306 | 79 | 143 | 6.0 | 9.0 | 0.00 | 0.00 | 0.00 | 66 | 1009.0 |
| 20260504223803 | 79 | 143 | 3.0 | 6.0 | 0.00 | 0.00 | 0.00 | 67 | 1009.1 |
| 20260504223258 | 79 | 141 | 5.0 | 8.0 | 0.00 | 0.00 | 0.00 | 66 | 1009.1 |
| 20260504222755 | 80 | 132 | 3.0 | 5.0 | 0.00 | 0.00 | 0.00 | 67 | 1009.2 |
| 20260504222252 | 80 | 142 | 2.0 | 3.0 | 0.00 | 0.00 | 0.00 | 66 | 1009.2 |
| 20260504221750 | 80 | 144 | 6.0 | 8.0 | 0.00 | 0.00 | 0.00 | 66 | 1009.1 |
| 20260504221247 | 80 | 143 | 3.0 | 5.0 | 0.00 | 0.00 | 0.00 | 66 | 1009.0 |
| 20260504220743 | 80 | 134 | 4.0 | 7.0 | 0.00 | 0.00 | 0.00 | 66 | 1009.2 |
| 20260504220241 | 79 | 132 | 1.0 | 2.0 | 0.00 | 0.00 | 0.00 | 68 | 1009.1 |
| 20260504215738 | 79 | 132 | 4.0 | 6.0 | 0.00 | 0.00 | 0.00 | 67 | 1009.0 |
| 20260504215234 | 80 | 142 | 4.0 | 5.0 | 0.00 | 0.00 | 0.00 | 67 | 1009.1 |
| 20260504214730 | 79 | 140 | 4.0 | 6.0 | 0.00 | 0.00 | 0.00 | 68 | 1009.2 |
| 20260504214227 | 80 | 143 | 3.0 | 5.0 | 0.00 | 0.00 | 0.00 | 67 | 1009.1 |
| 20260504213724 | 79 | 143 | 7.0 | 8.0 | 0.00 | 0.00 | 0.00 | 67 | 1009.1 |
| 20260504213220 | 78 | 143 | 4.0 | 5.0 | 0.00 | 0.00 | 0.00 | 69 | 1009.2 |
| 20260504212717 | 78 | 134 | 4.0 | 5.0 | 0.00 | 0.00 | 0.00 | 68 | 1009.6 |
| 20260504212214 | 79 | 130 | 5.0 | 7.0 | 0.00 | 0.00 | 0.00 | 67 | 1009.3 |
| 20260504211711 | 79 | 143 | 4.0 | 6.0 | 0.00 | 0.00 | 0.00 | 67 | 1009.2 |
| 20260504211207 | 79 | 140 | 4.0 | 6.0 | 0.00 | 0.00 | 0.00 | 68 | 1009.5 |
| 20260504210705 | 79 | 141 | 7.0 | 10.0 | 0.00 | 0.00 | 0.00 | 68 | 1009.6 |
| 20260504210202 | 80 | 140 | 3.0 | 3.0 | 0.00 | 0.00 | 0.00 | 67 | 1009.6 |
| 20260504205659 | 79 | 141 | 6.0 | 10.0 | 0.00 | 0.00 | 0.00 | 68 | 1010.3 |
| 20260504205155 | 79 | 139 | 5.0 | 7.0 | 0.00 | 0.00 | 0.00 | 68 | 1010.2 |
| 20260504204654 | 79 | 138 | 6.0 | 9.0 | 0.00 | 0.00 | 0.00 | 67 | 1010.0 |
| 20260504204153 | 80 | 138 | 2.0 | 3.0 | 0.00 | 0.00 | 0.00 | 67 | 1010.1 |
| 20260504203651 | 79 | 141 | 4.0 | 5.0 | 0.00 | 0.00 | 0.00 | 67 | 1010.3 |
| 20260504203149 | 79 | 140 | 4.0 | 5.0 | 0.00 | 0.00 | 0.00 | 67 | 1010.5 |
| 20260504202649 | 80 | 139 | 5.0 | 8.0 | 0.00 | 0.00 | 0.00 | 66 | 1010.4 |
| 20260504202146 | 79 | 141 | 6.0 | 8.0 | 0.00 | 0.00 | 0.00 | 66 | 1010.7 |
| 20260504201643 | 79 | 140 | 4.0 | 6.0 | 0.00 | 0.00 | 0.00 | 66 | 1010.6 |
| 20260504201141 | 79 | 141 | 5.0 | 6.0 | 0.00 | 0.00 | 0.00 | 65 | 1010.4 |
| 20260504200637 | 80 | 140 | 5.0 | 6.0 | 0.00 | 0.00 | 0.00 | 66 | 1010.6 |
| 20260504200134 | 80 | 140 | 5.0 | 7.0 | 0.00 | 0.00 | 0.00 | 65 | 1010.7 |
| 20260504195630 | 80 | 139 | 5.0 | 7.0 | 0.00 | 0.00 | 0.00 | 64 | 1010.9 |
| 20260504195126 | 79 | 137 | 4.0 | 5.0 | 0.00 | 0.00 | 0.00 | 66 | 1010.8 |
| 20260504194623 | 81 | 140 | 4.0 | 6.0 | 0.00 | 0.00 | 0.00 | 64 | 1011.0 |
| 20260504194119 | 80 | 140 | 7.0 | 9.0 | 0.00 | 0.00 | 0.00 | 65 | 1010.9 |
| 20260504193615 | 80 | 140 | 4.0 | 6.0 | 0.00 | 0.00 | 0.00 | 65 | 1010.8 |
| 20260504193114 | 79 | 138 | 4.0 | 6.0 | 0.00 | 0.00 | 0.00 | 65 | 1011.0 |
| 20260504192612 | 80 | 140 | 3.0 | 3.0 | 0.00 | 0.00 | 0.00 | 64 | 1011.0 |
| 20260504192110 | 80 | 138 | 4.0 | 5.0 | 0.00 | 0.00 | 0.00 | 65 | 1011.4 |
| 20260504191608 | 81 | 140 | 6.0 | 8.0 | 0.00 | 0.00 | 0.00 | 63 | 1011.1 |
| 20260504191104 | 81 | 139 | 5.0 | 7.0 | 0.00 | 0.00 | 0.00 | 64 | 1011.4 |
| 20260504190600 | 80 | 133 | 2.0 | 3.0 | 0.00 | 0.00 | 0.00 | 63 | 1011.2 |
| 20260504190056 | 80 | 138 | 2.0 | 5.0 | 0.00 | 0.00 | 0.00 | 63 | 1011.0 |
| 20260504185553 | 82 | 137 | 7.0 | 11.0 | 0.00 | 0.00 | 0.00 | 61 | 1011.3 |
| 20260504185050 | 80 | 130 | 6.0 | 8.0 | 0.00 | 0.00 | 0.00 | 62 | 1011.4 |
| 20260504184545 | 80 | 139 | 6.0 | 8.0 | 0.00 | 0.00 | 0.00 | 63 | 1011.6 |
| 20260504184041 | 81 | 139 | 4.0 | 6.0 | 0.00 | 0.00 | 0.00 | 62 | 1011.6 |
| 20260504183538 | 80 | 140 | 8.0 | 11.0 | 0.00 | 0.00 | 0.00 | 62 | 1011.6 |
| 20260504183036 | 80 | 140 | 5.0 | 10.0 | 0.00 | 0.00 | 0.00 | 65 | 1011.8 |
| 20260504182533 | 79 | 139 | 6.0 | 10.0 | 0.00 | 0.00 | 0.00 | 63 | 1011.8 |
| 20260504182030 | 80 | 132 | 5.0 | 8.0 | 0.00 | 0.00 | 0.00 | 63 | 1011.9 |
| 20260504181527 | 79 | 139 | 4.0 | 7.0 | 0.00 | 0.00 | 0.00 | 65 | 1011.8 |
| 20260504181026 | 78 | 139 | 4.0 | 6.0 | 0.00 | 0.00 | 0.00 | 67 | 1012.0 |
| 20260504180524 | 78 | 138 | 5.0 | 9.0 | 0.00 | 0.00 | 0.00 | 66 | 1011.9 |
| 20260504180023 | 77 | 137 | 3.0 | 3.0 | 0.00 | 0.00 | 0.00 | 68 | 1011.9 |
| 20260504175519 | 79 | 138 | 3.0 | 5.0 | 0.00 | 0.00 | 0.00 | 66 | 1012.3 |
| 20260504175016 | 79 | 132 | 6.0 | 9.0 | 0.00 | 0.00 | 0.00 | 64 | 1012.3 |
| 20260504174514 | 78 | 134 | 3.0 | 5.0 | 0.00 | 0.00 | 0.00 | 68 | 1012.3 |
| 20260504174011 | 77 | 133 | 7.0 | 8.0 | 0.00 | 0.00 | 0.00 | 66 | 1012.6 |
| 20260504173507 | 76 | 137 | 3.0 | 5.0 | 0.00 | 0.00 | 0.00 | 67 | 1012.4 |
| 20260504173005 | 76 | 137 | 5.0 | 7.0 | 0.00 | 0.00 | 0.00 | 69 | 1012.2 |
| 20260504172501 | 76 | 137 | 5.0 | 7.0 | 0.00 | 0.00 | 0.00 | 70 | 1012.4 |
| 20260504171957 | 77 | 137 | 4.0 | 5.0 | 0.00 | 0.00 | 0.00 | 69 | 1012.8 |
| 20260504171454 | 75 | 133 | 4.0 | 6.0 | 0.00 | 0.00 | 0.00 | 72 | 1012.6 |
| 20260504170951 | 74 | 137 | 5.0 | 7.0 | 0.00 | 0.00 | 0.00 | 73 | 1013.1 |
| 20260504170447 | 74 | 137 | 4.0 | 5.0 | 0.00 | 0.00 | 0.00 | 73 | 1012.9 |
| 20260504160407 | 71 | 137 | 5.0 | 9.0 | 0.00 | 0.00 | 0.00 | 79 | 1013.3 |
| 20260504150831 | 67 | 136 | 5.0 | 8.0 | 0.00 | 0.00 | 0.00 | 86 | 1013.8 |
| 20260504150328 | 67 | 136 | 7.0 | 8.0 | 0.00 | 0.00 | 0.00 | 86 | 1013.8 |
| 20260504141258 | 65 | 135 | 5.0 | 7.0 | 0.00 | 0.00 | 0.00 | 85 | 1013.6 |
| 20260504140754 | 65 | 135 | 5.0 | 6.0 | 0.00 | 0.00 | 0.00 | 84 | 1013.5 |
| 20260504140250 | 65 | 135 | 4.0 | 7.0 | 0.00 | 0.00 | 0.00 | 85 | 1013.5 |
| 20260504130719 | 61 | 135 | 1.0 | 2.0 | 0.00 | 0.00 | 0.00 | 90 | 1013.8 |
| 20260504130215 | 61 | 135 | 2.0 | 2.0 | 0.00 | 0.00 | 0.00 | 91 | 1013.6 |
| 20260504120139 | 59 | 133 | 1.0 | 2.0 | 0.00 | 0.00 | 0.00 | 93 | 1013.4 |
| 20260504110606 | 59 | 133 | 0.0 | 0.0 | 0.00 | 0.00 | 0.00 | 91 | 1013.5 |
| 20260504100528 | 59 | 134 | 0.0 | 1.0 | 0.00 | 0.00 | 0.00 | 91 | 1013.4 |
| 20260504081921 | 61 | 90 | 1.0 | 1.0 | 0.00 | 0.00 | 0.00 | 87 | 1014.3 |
| 20260504081418 | 61 | 81 | 0.0 | 1.0 | 0.00 | 0.00 | 0.00 | 86 | 1014.2 |
| 20260504080914 | 61 | 90 | 1.0 | 1.0 | 0.00 | 0.00 | 0.00 | 86 | 1014.0 |
| 20260504080411 | 61 | 83 | 1.0 | 1.0 | 0.00 | 0.00 | 0.00 | 86 | 1014.1 |
| 20260504070339 | 63 | 142 | 4.0 | 6.0 | 0.00 | 0.00 | 0.00 | 82 | 1015.0 |
| 20260504050721 | 64 | 153 | 3.0 | 5.0 | 0.00 | 0.00 | 0.00 | 76 | 1016.1 |
| 20260504050218 | 64 | 139 | 2.0 | 2.0 | 0.00 | 0.00 | 0.00 | 75 | 1016.1 |
| 20260504045715 | 64 | 122 | 3.0 | 3.0 | 0.00 | 0.00 | 0.00 | 75 | 1016.3 |
| 20260504045210 | 64 | 128 | 3.0 | 3.0 | 0.00 | 0.00 | 0.00 | 75 | 1016.0 |
| 20260504044708 | 64 | 124 | 2.0 | 2.0 | 0.00 | 0.00 | 0.00 | 74 | 1016.1 |
| 20260504044205 | 64 | 148 | 3.0 | 3.0 | 0.00 | 0.00 | 0.00 | 74 | 1016.4 |
| 20260504043701 | 64 | 156 | 2.0 | 3.0 | 0.00 | 0.00 | 0.00 | 73 | 1016.2 |
| 20260504043158 | 64 | 162 | 3.0 | 5.0 | 0.00 | 0.00 | 0.00 | 73 | 1016.3 |
| 20260504042656 | 64 | 141 | 3.0 | 5.0 | 0.00 | 0.00 | 0.00 | 73 | 1016.3 |
| 20260504042152 | 65 | 113 | 3.0 | 5.0 | 0.00 | 0.00 | 0.00 | 72 | 1016.5 |
| 20260504041648 | 65 | 139 | 4.0 | 5.0 | 0.00 | 0.00 | 0.00 | 72 | 1016.2 |
| 20260504041144 | 65 | 126 | 2.0 | 2.0 | 0.00 | 0.00 | 0.00 | 71 | 1016.6 |
| 20260504040642 | 65 | 97 | 2.0 | 3.0 | 0.00 | 0.00 | 0.00 | 71 | 1016.6 |
| 20260504040138 | 65 | 130 | 4.0 | 6.0 | 0.00 | 0.00 | 0.00 | 71 | 1016.6 |
| 20260504035635 | 65 | 111 | 1.0 | 2.0 | 0.00 | 0.00 | 0.00 | 71 | 1016.5 |
| 20260504035132 | 65 | 104 | 1.0 | 2.0 | 0.00 | 0.00 | 0.00 | 70 | 1016.3 |
| 20260504034630 | 65 | 159 | 3.0 | 3.0 | 0.00 | 0.00 | 0.00 | 70 | 1016.3 |
| 20260504034126 | 65 | 121 | 3.0 | 5.0 | 0.00 | 0.00 | 0.00 | 69 | 1016.4 |
| 20260504033624 | 66 | 152 | 2.0 | 3.0 | 0.00 | 0.00 | 0.00 | 69 | 1016.2 |
| 20260504033121 | 66 | 145 | 5.0 | 7.0 | 0.00 | 0.00 | 0.00 | 68 | 1016.4 |
| 20260504032618 | 66 | 118 | 3.0 | 3.0 | 0.00 | 0.00 | 0.00 | 68 | 1016.3 |
| 20260504032115 | 66 | 138 | 3.0 | 3.0 | 0.00 | 0.00 | 0.00 | 68 | 1016.2 |
| 20260504031612 | 66 | 144 | 2.0 | 2.0 | 0.00 | 0.00 | 0.00 | 67 | 1016.1 |
| 20260504031108 | 66 | 106 | 3.0 | 3.0 | 0.00 | 0.00 | 0.00 | 66 | 1016.3 |
| 20260504030605 | 66 | 132 | 2.0 | 2.0 | 0.00 | 0.00 | 0.00 | 65 | 1016.2 |
| 20260504025559 | 66 | 105 | 1.0 | 2.0 | 0.00 | 0.00 | 0.00 | 61 | 1016.2 |
| 20260504025056 | 66 | 108 | 1.0 | 1.0 | 0.00 | 0.00 | 0.00 | 60 | 1016.3 |
| 20260504024553 | 66 | 89 | 1.0 | 1.0 | 0.00 | 0.00 | 0.00 | 59 | 1016.1 |
| 20260504024049 | 66 | 90 | 0.0 | 1.0 | 0.00 | 0.00 | 0.00 | 60 | 1016.3 |
| 20260504023546 | 66 | 106 | 0.0 | 0.0 | 0.00 | 0.00 | 0.00 | 63 | 1016.4 |
| 20260504023042 | 66 | 106 | 0.0 | 0.0 | 0.00 | 0.00 | 0.00 | 58 | 1016.1 |
| 20260504022538 | 66 | 106 | 0.0 | 0.0 | 0.00 | 0.00 | 0.00 | 58 | 1016.0 |
| 20260504022035 | 66 | 106 | 0.0 | 0.0 | 0.00 | 0.00 | 0.00 | 58 | 1015.8 |
| 20260504021532 | 66 | 106 | 0.0 | 0.0 | 0.00 | 0.00 | 0.00 | 58 | 1016.0 |
| 20260504021029 | 67 | 106 | 0.0 | 0.0 | 0.00 | 0.00 | 0.00 | 57 | 1016.2 |
| 20260504020526 | 67 | 106 | 0.0 | 0.0 | 0.00 | 0.00 | 0.00 | 56 | 1016.0 |
| 20260504020022 | 68 | 106 | 0.0 | 0.0 | 0.00 | 0.00 | 0.00 | 55 | 1016.0 |
| 20260504015519 | 68 | 106 | 0.0 | 0.0 | 0.00 | 0.00 | 0.00 | 55 | 1015.8 |
| 20260504015015 | 68 | 106 | 0.0 | 0.0 | 0.00 | 0.00 | 0.00 | 55 | 1015.8 |
| 20260504014511 | 68 | 106 | 0.0 | 0.0 | 0.00 | 0.00 | 0.00 | 55 | 1015.7 |
| 20260504014008 | 68 | 106 | 0.0 | 0.0 | 0.00 | 0.00 | 0.00 | 54 | 1015.7 |
| 20260504013506 | 69 | 106 | 0.0 | 0.0 | 0.00 | 0.00 | 0.00 | 54 | 1015.9 |
| 20260504013003 | 69 | 106 | 0.0 | 0.0 | 0.00 | 0.00 | 0.00 | 53 | 1015.7 |
| 20260504012500 | 69 | 106 | 0.0 | 0.0 | 0.00 | 0.00 | 0.00 | 53 | 1015.4 |
| 20260504011958 | 69 | 84 | 0.0 | 0.0 | 0.00 | 0.00 | 0.00 | 52 | 1015.7 |
| 20260504011454 | 70 | 87 | 0.0 | 0.0 | 0.00 | 0.00 | 0.00 | 51 | 1015.4 |
| 20260504010950 | 70 | 91 | 0.0 | 1.0 | 0.00 | 0.00 | 0.00 | 51 | 1015.7 |
| 20260504010446 | 70 | 89 | 0.0 | 0.0 | 0.00 | 0.00 | 0.00 | 51 | 1015.3 |
| 20260504005942 | 71 | 103 | 0.0 | 0.0 | 0.00 | 0.00 | 0.00 | 50 | 1015.9 |
| 20260504005439 | 71 | 73 | 0.0 | 1.0 | 0.00 | 0.00 | 0.00 | 49 | 1015.4 |
| 20260504004937 | 71 | 109 | 1.0 | 2.0 | 0.00 | 0.00 | 0.00 | 49 | 1015.2 |
| 20260504004434 | 71 | 176 | 4.0 | 5.0 | 0.00 | 0.00 | 0.00 | 48 | 1015.4 |
| 20260504003931 | 72 | 120 | 2.0 | 2.0 | 0.00 | 0.00 | 0.00 | 48 | 1015.4 |
| 20260504003427 | 72 | 102 | 2.0 | 3.0 | 0.00 | 0.00 | 0.00 | 47 | 1015.5 |
| 20260504002924 | 73 | 200 | 2.0 | 3.0 | 0.00 | 0.00 | 0.00 | 47 | 1015.9 |
| 20260504002421 | 73 | 119 | 2.0 | 3.0 | 0.00 | 0.00 | 0.00 | 46 | 1015.8 |
| 20260504001919 | 73 | 204 | 4.0 | 5.0 | 0.00 | 0.00 | 0.00 | 46 | 1015.8 |
| 20260504001416 | 74 | 138 | 2.0 | 3.0 | 0.00 | 0.00 | 0.00 | 46 | 1016.0 |
| 20260504000912 | 74 | 118 | 4.0 | 5.0 | 0.00 | 0.00 | 0.00 | 45 | 1016.2 |
| 20260504000410 | 73 | 167 | 2.0 | 3.0 | 0.00 | 0.00 | 0.00 | 46 | 1016.1 |
| 20260503235907 | 74 | 131 | 2.0 | 3.0 | 0.00 | 0.00 | 0.00 | 45 | 1016.0 |
| 20260503235405 | 74 | 157 | 3.0 | 3.0 | 0.00 | 0.00 | 0.00 | 45 | 1016.2 |
| 20260503234902 | 75 | 171 | 3.0 | 6.0 | 0.00 | 0.00 | 0.00 | 45 | 1016.1 |
| 20260503234359 | 75 | 140 | 5.0 | 7.0 | 0.00 | 0.00 | 0.00 | 44 | 1016.0 |
| 20260503233857 | 75 | 178 | 3.0 | 3.0 | 0.00 | 0.00 | 0.00 | 45 | 1016.2 |
| 20260503233353 | 74 | 163 | 3.0 | 3.0 | 0.00 | 0.00 | 0.00 | 46 | 1016.4 |
| 20260503232849 | 75 | 134 | 2.0 | 2.0 | 0.00 | 0.00 | 0.00 | 46 | 1016.3 |
| 20260503232347 | 76 | 141 | 3.0 | 6.0 | 0.00 | 0.00 | 0.00 | 45 | 1016.3 |
| 20260503231845 | 76 | 159 | 5.0 | 6.0 | 0.00 | 0.00 | 0.00 | 44 | 1016.3 |
| 20260503231341 | 76 | 148 | 5.0 | 7.0 | 0.00 | 0.00 | 0.00 | 44 | 1016.0 |
| 20260503230838 | 76 | 151 | 3.0 | 5.0 | 0.00 | 0.00 | 0.00 | 45 | 1016.2 |
| 20260503230335 | 76 | 124 | 5.0 | 7.0 | 0.00 | 0.00 | 0.00 | 44 | 1016.4 |
| 20260503225833 | 76 | 155 | 6.0 | 7.0 | 0.00 | 0.00 | 0.00 | 43 | 1016.3 |